TIANWANG 1B (TW-1B)
1 40927U 15051C   19054.40329119  .00008224  00000-0  13911-3 0  9996
2 40927  97.1544 100.4049 0011013  88.0192  32.3714 15.51768222192120
TIANWANG 1A (TW-1A)
1 40928U 15051D   19054.52362006  .00002668  00000-0  68672-4 0  9993
2 40928  97.1587  88.3423 0012960 125.5305  19.8875 15.40033017191440
LAPAN A2
1 40931U 15052B   19050.67521619  .00000631  00000-0 -11729-5 0  9998
2 40931   5.9965 185.3777 0012436 269.3417  90.5202 14.76597304183645
LQSAT
1 40958U 15057A   19054.42865647 -.00000008  00000-0  65350-5 0  9998
2 40958  97.9120 126.6662 0016686 250.9195 109.0212 14.73067293181831
CHUBUSAT 2
1 41338U 16012B   19053.64765226  .00000304  00000-0  16985-4 0  9995
2 41338  31.0025 162.2138 0013850  33.1589 326.9912 15.00097301165472
CHUBUSAT 3
1 41339U 16012C   19054.42924365  .00000261  00000-0  13584-4 0  9998
2 41339  31.0096 155.4938 0013713  48.4339 311.7504 15.00276550165589
OUFTI-1
1 41458U 16025C   19054.41488968  .00001198  00000-0  65123-4 0  9993
2 41458  98.1098 135.4144 0168382  25.1159 335.8124 15.05435813155239
E-STAR-2
1 41459U 16025D   19054.47156728  .00001206  00000-0  65827-4 0  9997
2 41459  98.1099 135.2009 0169776  26.0563 334.9082 15.05108916155218
AAUSAT 4
1 41460U 16025E   19054.45207523  .00000940  00000-0  51571-4 0  9992
2 41460  98.1013 136.1503 0159886  19.7622 340.9711 15.06831662155310
NUSAT 1
1 41557U 16033B   19054.51884525  .00001123  00000-0  45224-4 0  9990
2 41557  97.4220 142.7052 0013555 351.6655   8.4357 15.26892721152513
BEESAT 4
1 41619U 16040W   19054.40188460  .00001155  00000-0  52314-4 0  9993
2 41619  97.3829 118.7069 0013016  72.1888 288.0767 15.22791871136313
PRATHAM
1 41783U 16059A   19053.80799858 +.00000047 +00000-0 +18389-4 0  9990
2 41783 098.0839 115.8569 0034139 030.5233 329.7947 14.62974050128609
ALSAT 1N
1 41789U 16059G   19054.44193297  .00000061  00000-0  20549-4 0  9999
2 41789  98.0861 118.2255 0029104  19.6267 340.6051 14.64217739128783
NAYIF 1
1 42017U 17008BX  19054.17407302  .00001290  00000-0  54321-4 0  9994
2 42017  97.4171 122.4041 0005582 202.3570 157.7426 15.25163559112310
LILACSAT-1
1 42725U 98067ME  19054.45786309  .00157352  20945-4  38202-3 0  9996
2 42725  51.6325 138.9885 0003873  16.7130  67.9867 15.95961760100211
MAX VALIER SAT
1 42778U 17036P   19053.74340181 +.00000762 +00000-0 +36584-4 0  9996
2 42778 097.3706 113.8812 0010806 271.1046 088.8952 15.21778170092608
